{"data":{"norad_id":67539,"epoch":"2026-09-18T02:59:10.925664Z","epoch_age_seconds":277395,"freshness":"STALE","line1":"1 67539U 26014H   26261.12443201  .00017718  00000+0  54926-3 0  9999","line2":"2 67539  97.2816 146.5166 0003172  77.5041 282.6557 15.33474867 38274","mean_motion":15.33474867,"eccentricity":0.0003172,"inclination_deg":97.2816,"raan_deg":146.5166,"arg_perigee_deg":77.5041,"mean_anomaly_deg":282.6557,"bstar":0.00054926,"rev_number":3827,"period_min":93.904375675692,"perigee_km":463.28352557725,"apogee_km":467.62509990606,"semimajor_km":6843.5913127417,"source":"CELESTRAK","updated_at":"2026-09-20T09:00:43.567594Z"}}